Regional Weather Roundup
Issued by NWS Boston, MA

Home | Current Version | Previous Version | Text Only | Print | Product List | Glossary On
Versions: 1 2 3 4 5 6 7 8 9 10 11 12 13 14 15 16 17 18 19 20 21 22 23 24 25 26 27 28 29 30 31 32 33 34 35 36 37 38 39 40 41 42 43 44 45 46 47 48 49 50
000
ASUS41 KBOX 232310
RWRBOX

REGIONAL WEATHER ROUNDUP
NATIONAL WEATHER SERVICE BOSTON/NORTON MA
700 PM EDT TUE OCT 23 2018

NOTE:  "FAIR" INDICATES FEW OR NO CLOUDS BELOW 12,000 FEET WITH NO
SIGNIFICANT WEATHER AND/OR OBSTRUCTIONS TO VISIBILITY.

MAZALL-240000-
EASTERN MASSACHUSETTS

CITY           SKY/WX    TMP DP  RH WIND       PRES   REMARKS
BOSTON         TSTM      51  46  83 VRB5      29.91R
BEVERLY        RAIN      48  43  82 W10G28    29.93R
LAWRENCE       LGT RAIN  48  43  82 NE13      29.92F
BEDFORD        CLOUDY    48  45  89 S3        29.89F
BLUE HILL        N/A     46  45  96 W16G28    29.89R
NORWOOD        RAIN      51  46  83 VRB3G18   29.89R
MARSHFIELD     MOCLDY    50  50 100 CALM      29.89S
PLYMOUTH       MOCLDY    53  50  89 CALM      29.89S
TAUNTON        FAIR      45  42  89 CALM      29.89R FOG
NEW BEDFORD    FAIR      53  52  96 SW8       29.88S
$$

MAZALL-240000-
CAPE COD AND THE ISLANDS

CITY           SKY/WX    TMP DP  RH WIND       PRES   REMARKS
FALMOUTH       CLOUDY    57  52  82 S8        29.89F
HYANNIS        FAIR      57  52  83 S8        29.88F
CHATHAM        FAIR      55  53  93 S7        29.91F
PROVINCETOWN   CLOUDY    55  54  94 S7        29.90F
NANTUCKET      FAIR      57  53  86 S12       29.91F
MARTHAS VNYRD  FAIR      59  53  80 SW15G22   29.89F
$$

MAZALL-240000-
CENTRAL AND WESTERN MASSACHUSETTS

CITY           SKY/WX    TMP DP  RH WIND       PRES   REMARKS
WORCESTER      FAIR      43  43 100 W5        29.88S
FITCHBURG      FAIR      44  43  96 CALM      29.90S FOG
ORANGE         FAIR      43  40  89 CALM      29.90S FOG
SPRINGFIELD    MOCLDY    49  40  72 CALM      29.88F
WESTFIELD      FAIR      47  42  83 CALM      29.90S
NORTH ADAMS    FAIR      42  42 100 CALM      29.91F
PITTSFIELD     CLOUDY    45  40  82 SW7       29.90R
$$

RIZALL-240000-
RHODE ISLAND

CITY           SKY/WX    TMP DP  RH WIND       PRES   REMARKS
PROVIDENCE     FAIR      53  49  86 SW6       29.89R
NEWPORT        FAIR      56  50  80 VRB5      29.89R
BLOCK ISLAND   FAIR      56  48  74 SW14      29.91R
SMITHFIELD     FAIR      48  48 100 CALM      29.89R
WESTERLY       FAIR      58  48  69 SW9       29.91R
$$

CTZALL-240000-
CONNECTICUT

CITY           SKY/WX    TMP DP  RH WIND       PRES   REMARKS
BRADLEY INTL   CLOUDY    50  44  80 W15       29.93R
HARTFORD       CLOUDY    54  43  66 W12G20    29.94R
BRIDGEPORT     LGT RAIN  53  44  71 NW16G24   29.92R
DANBURY        CLOUDY    52  41  66 W10       29.96R
GROTON         FAIR      56  44  64 W7        29.90R
NEW HAVEN      RAIN      56  46  69 NW16G30   29.94R
CHESTER        FAIR      54  41  62 NW5       29.90S
MERIDEN        CLOUDY    50  46  86 NW7       29.93R
WILLIMANTIC    CLOUDY    54  43  66 W9        29.91R
OXFORD         CLOUDY    49  45  86 VRB6      29.95R
$$

MEZ002-015-021-024-NHZ003-005-008-011-012-014-VTZ005-008-240000-
NORTHERN NEW ENGLAND

CITY           SKY/WX    TMP DP  RH WIND       PRES   REMARKS
PORTLAND ME    LGT RAIN  51  44  77 E16G28    29.94F
BANGOR ME      MOCLDY    36  33  89 N12       30.07F WCI  28
CONCORD NH     CLOUDY    40  38  93 N7        29.92F
MANCHESTER NH  MOCLDY    44  42  93 N12       29.90F
NASHUA NH      MOCLDY    44  44 100 CALM      29.92S
PORTSMOUTH NH  TSTM      42  39  89 NW10      29.95
JAFFREY NH     MOCLDY    39  39 100 CALM      29.90S FOG
KEENE NH       CLOUDY    43  41  93 N3        29.90  FOG
BURLINGTON VT  CLOUDY    43  40  89 N3        29.95S
MT. WASHINGTON SNOW      23  23 100 SE23        N/A  VSB 0   WCI   7
$$

NYZ052-076-240000-
EASTERN NEW YORK

CITY           SKY/WX    TMP DP  RH WIND       PRES   REMARKS
ALBANY         CLOUDY    46  42  86 SW3       29.94R
NEW YORK CITY  MOCLDY    59  40  49 NW10G21   29.94R
$$

ANZALL-240000-
MARINE OBSERVATIONS

STATION/POSITION TIME  TEMP    WIND        PRES    VSBY  WAVE
                       AIR SEA DIR/SP/G                  HT/PER
                 (UTC) (F)     (DEG/KT/KT) (MB)    (MI)  (FT/S)
BOSTON BUOY      2250   54 56   70/ 12/ 14 1011.8F         2/ 4
BUZZARDS BAY     2200   60     210/ 21/ 24 1012.2F
NANTUCKET SOUND  2250   59 58  200/ 16/ 19 1012.2F         2/ 3
MASS BAY-STELLWA 2204   50 56   20/ 10/ 12 1012.4F  1 1/2  3/ 5
ISLE OF SHOALS   2200   52     140/ 26/ 29 1012.0F
S OF BLOCK IS    2243      62                N/A           6/ 6
$$

......................KEY.........................
  SKY/WX - SKY CONDITION/PRESENT WEATHER
  TMP    - TEMPERATURE IN FAHRENHEIT
  DWPT   - DEWPOINT IN FAHRENHEIT
  RH     - RELATIVE HUMIDITY IN PERCENT
  WIND   - DIRECTION AND SPEED IN MPH
  PRES   - MEAN SEA LEVEL PRESSURE IN INCHES OF HG
  WCI    - WIND CHILL INDEX
  VSB    - VISIBILITY IN MILES
  HX     - HEAT INDEX
  TC     - TEMPERATURE IN CELSIUS
  VRB    - VARIABLE WIND DIRECTION
  N/A    - NOT AVAILABLE



USA.gov is the U.S. government's official web portal to all federal, state and local government web resources and services.